Hoquiam, WA

8:53 PM PDT on April 19, 2018 (GMT -0700)
Bowerman

Weather History for KHQM - September, 2013

Change the Weather History Date:

Sunday, September 1, 2013

  Actual Average Record
Temperature  
Mean Temperature 65 °F 60 °F  
Max Temperature 72 °F 68 °F 91 °F (2006)
Min Temperature 58 °F 53 °F 43 °F (1960)
Degree Days  
Heating Degree Days 0 5  
Month to date heating degree days 0 5  
Cooling Degree Days 0 0  
Month to date cooling degree days 0 0  
Year to date cooling degree days 13 16  
Growing Degree Days 15 (Base 50)    
Moisture  
Dew Point 58 °F    
Average Humidity 78    
Maximum Humidity 97    
Minimum Humidity 59    
Precipitation  
Precipitation 0.00 in 0.06 in 1.76 in (1971)
Month to date precipitation 0.00 0.06  
Year to date precipitation 34.34 37.67  
Sea Level Pressure  
Sea Level Pressure 29.89 in    
Wind  
Wind Speed 5 mph (SSW)    
Max Wind Speed 15 mph    
Max Gust Speed 18 mph    
Visibility 9 miles    
Events      
T = Trace of Precipitation, MM = Missing Value Source: NWS Daily Summary

Daily Weather History Graph

Daily Weather History Graph

Search for Another Location

Airport or City:

Astronomy

Sep. 01, 2013 Rise Set
Actual Time 6:35 AM PDT 7:54 PM PDT
Civil Twilight 6:04 AM PDT 8:26 PM PDT
Nautical Twilight 5:26 AM PDT 9:03 PM PDT
Astronomical Twilight 4:45 AM PDT 9:44 PM PDT
Moon 2:53 AM PDT (9/1) 5:42 PM PDT (9/1)
Length of Visible Light 14h 21m
Length of Day
13h 18m
Waning Crescent, 13% of the Moon is Illuminated
Sep 1
Waning Crescent
Sep 5
New
Sep 12
First Quarter
Sep 19
Full
Sep 26
Last Quarter

Hourly Weather History & Observations

Time (PDT) Temp. Dew Point Humidity Pressure Visibility Wind Dir Wind Speed Gust Speed Precip Events Conditions
12:53 AM 62.1 °F 61.0 °F 96% 29.91 in 9.0 mi SSW 6.9 mph - N/A   Overcast
1:27 AM 62.6 °F 60.8 °F 94% 29.89 in 10.0 mi SSW 6.9 mph - N/A   Mostly Cloudy
1:53 AM 62.1 °F 60.1 °F 93% 29.91 in 10.0 mi SSW 6.9 mph - N/A   Overcast
2:53 AM 62.1 °F 59.0 °F 90% 29.91 in 10.0 mi SW 6.9 mph - N/A   Overcast
3:46 AM 62.6 °F 60.8 °F 94% 29.90 in 10.0 mi South 5.8 mph - N/A   Overcast
3:53 AM 62.1 °F 60.1 °F 93% 29.91 in 10.0 mi South 6.9 mph - N/A   Overcast
4:02 AM 62.6 °F 59.0 °F 88% 29.89 in 10.0 mi South 8.1 mph - N/A   Overcast
4:34 AM 60.8 °F 59.0 °F 94% 29.90 in 10.0 mi South 5.8 mph - N/A   Scattered Clouds
4:53 AM 61.0 °F 59.0 °F 93% 29.91 in 10.0 mi South 5.8 mph - N/A   Clear
5:53 AM 60.1 °F 57.9 °F 93% 29.91 in 8.0 mi South 5.8 mph - N/A   Partly Cloudy
6:06 AM 60.8 °F 57.2 °F 88% 29.90 in 8.0 mi South 8.1 mph - N/A   Mostly Cloudy
6:38 AM 60.8 °F 57.2 °F 88% 29.90 in 8.0 mi SSW 3.5 mph - N/A   Overcast
6:53 AM 60.1 °F 57.9 °F 93% 29.91 in 7.0 mi Calm Calm - N/A   Overcast
7:31 AM 60.8 °F 57.2 °F 88% 29.90 in 7.0 mi SE 4.6 mph - N/A   Overcast
7:42 AM 60.8 °F 57.2 °F 88% 29.90 in 7.0 mi Calm Calm - N/A   Overcast
7:53 AM 60.1 °F 57.9 °F 93% 29.91 in 7.0 mi Calm Calm - N/A   Overcast
8:02 AM 60.8 °F 57.2 °F 88% 29.90 in 8.0 mi Calm Calm - N/A   Overcast
8:17 AM 60.8 °F 57.2 °F 88% 29.90 in 8.0 mi Calm Calm - N/A   Overcast
8:28 AM 60.8 °F 57.2 °F 88% 29.90 in 8.0 mi South 4.6 mph - N/A   Overcast
8:53 AM 61.0 °F 57.0 °F 87% 29.91 in 9.0 mi South 5.8 mph - N/A   Overcast
9:25 AM 62.6 °F 57.2 °F 82% 29.90 in 8.0 mi South 4.6 mph - N/A   Overcast
9:53 AM 62.1 °F 57.0 °F 84% 29.91 in 9.0 mi South 3.5 mph - N/A   Overcast
10:53 AM 63.0 °F 55.9 °F 78% 29.91 in 10.0 mi Calm Calm - N/A   Overcast
11:36 AM 64.4 °F 57.2 °F 77% 29.90 in 10.0 mi Calm Calm - N/A   Overcast
11:53 AM 64.9 °F 57.0 °F 75% 29.90 in 10.0 mi South 3.5 mph - N/A   Mostly Cloudy
12:53 PM 66.9 °F 59.0 °F 76% 29.89 in 9.0 mi SW 6.9 mph - N/A   Partly Cloudy
1:53 PM 66.9 °F 57.9 °F 73% 29.88 in 10.0 mi SW 9.2 mph - N/A   Clear
2:53 PM 68.0 °F 59.0 °F 73% 29.88 in 9.0 mi WSW 10.4 mph - N/A   Clear
3:53 PM 66.9 °F 59.0 °F 76% 29.88 in 9.0 mi West 10.4 mph - N/A   Clear
4:53 PM 69.1 °F 57.9 °F 68% 29.87 in 10.0 mi WSW 9.2 mph - N/A   Clear
5:53 PM 70.0 °F 55.0 °F 59% 29.86 in 10.0 mi West 3.5 mph - N/A   Clear
6:53 PM 68.0 °F 53.1 °F 59% 29.87 in 10.0 mi SW 8.1 mph - N/A   Clear
7:53 PM 66.0 °F 54.0 °F 65% 29.86 in 10.0 mi North 3.5 mph - N/A   Clear
8:53 PM 64.0 °F 54.0 °F 70% 29.87 in 10.0 mi NNE 4.6 mph - N/A   Clear
9:53 PM 60.1 °F 55.0 °F 83% 29.87 in 10.0 mi East 3.5 mph - N/A   Clear
10:53 PM 60.1 °F 55.9 °F 86% 29.87 in 10.0 mi ENE 5.8 mph - N/A   Clear
11:53 PM 60.1 °F 55.0 °F 83% 29.88 in 10.0 mi NE 4.6 mph - N/A   Clear